Location: Newark
(49.8969°N, 3.3422°E)
Time: 07:23:57
(UTC+00:00)

Vanguard 2 Rocket - Pass Details

Date: 19 January 2020
Orbit: 554 x 3327 km, 32.9° (Epoch: 20 February)

Event Time Altitude Azimuth Distance (km) Brightness Sun altitude
Rises 06:52:34 0° 220° (SW) 3,461 9.7 -7.0°
Reaches altitude 10° 06:55:21 10° 204° (SSW) 2,821 9.4 -6.6°
Maximum altitude 07:00:25 21° 157° (SSE) 2,630 10.0 -5.9°
Drops below altitude 10° 07:07:40 10° 113° (ESE) 4,223 12.3 -4.8°
Sets 07:13:07 0° 101° (E) 5,786 12.8 -4.0°
